W4WYD-2 Weather Reports


Display with metric or nautical units.
time (UTC)temp
F
wind
direction
speed
MPH
gust
MPH
rain 1hr
in
rain 24hr
in
rain mn
in
humidity
%
barometer
mb
20260906111431 74 241 0.0 0.0 0.00 0.00 0.00 99 1013.6
20260906110926 74 241 0.0 1.0 0.00 0.00 0.00 99 1013.6
20260906110422 74 241 0.0 0.0 0.00 0.00 0.00 99 1013.6
20260906105920 74 241 0.0 0.0 0.00 0.00 0.00 99 1013.4
20260906105411 74 241 0.0 0.0 0.00 0.00 0.00 99 1013.4
20260906104907 74 241 0.0 0.0 0.00 0.00 0.00 99 1013.2
20260906104405 74 241 0.0 0.0 0.00 0.00 0.00 99 1012.8
20260906103903 74 241 0.0 1.0 0.00 0.00 0.00 98 1012.9
20260906103402 75 241 0.0 0.0 0.00 0.00 0.00 98 1013.0
20260906102858 75 241 0.0 0.0 0.00 0.00 0.00 98 1012.9
20260906102357 75 241 0.0 1.0 0.00 0.00 0.00 98 1012.8
20260906101852 75 241 0.0 0.0 0.00 0.00 0.00 98 1012.8
20260906101347 75 241 0.0 0.0 0.00 0.00 0.00 98 1012.8
20260906100843 75 241 0.0 0.0 0.00 0.00 0.00 98 1012.6
20260906100342 75 241 0.0 0.0 0.00 0.00 0.00 98 1012.8
20260906095837 75 241 0.0 0.0 0.00 0.00 0.00 98 1012.8
20260906095332 75 241 0.0 0.0 0.00 0.00 0.00 98 1012.7
20260906094832 75 240 0.0 0.0 0.00 0.00 0.00 98 1012.8
20260906094327 75 240 1.0 2.0 0.00 0.00 0.00 98 1012.8
20260906093823 75 240 0.0 0.0 0.00 0.00 0.00 98 1012.9
20260906093319 76 240 0.0 0.0 0.00 0.00 0.00 97 1012.9
20260906092808 76 240 1.0 2.0 0.00 0.00 0.00 97 1012.8
20260906092308 76 241 0.0 0.0 0.00 0.00 0.00 97 1012.9
20260906091804 76 227 0.0 0.0 0.00 0.00 0.00 98 1013.0
20260906091300 76 228 0.0 0.0 0.00 0.00 0.00 98 1012.9
20260906090756 76 227 0.0 2.0 0.00 0.00 0.00 98 1012.7
20260906090255 76 230 1.0 1.0 0.00 0.00 0.00 98 1012.9
20260906085754 76 232 1.0 1.0 0.00 0.00 0.00 98 1012.8
20260906085254 76 250 1.0 1.0 0.00 0.00 0.00 98 1013.0
20260906084749 76 245 1.0 2.0 0.00 0.00 0.00 98 1012.9
20260906084248 75 203 0.0 0.0 0.00 0.00 0.00 98 1012.9
20260906083743 75 204 0.0 1.0 0.00 0.00 0.00 98 1012.9
20260906083239 76 239 0.0 0.0 0.00 0.00 0.00 98 1012.5
20260906082734 76 239 0.0 0.0 0.00 0.00 0.00 98 1012.6
20260906082229 76 239 0.0 0.0 0.00 0.00 0.00 98 1012.5
20260906081725 76 239 0.0 0.0 0.00 0.00 0.00 98 1012.6
20260906081225 76 239 0.0 0.0 0.00 0.00 0.00 98 1012.4
20260906080721 76 239 0.0 0.0 0.00 0.00 0.00 98 1012.4
20260906080218 76 239 0.0 0.0 0.00 0.00 0.00 98 1012.2
20260906075712 76 239 0.0 0.0 0.00 0.00 0.00 97 1012.4
20260906075207 76 239 0.0 0.0 0.00 0.00 0.00 97 1012.4
20260906074702 76 239 0.0 0.0 0.00 0.00 0.00 97 1012.4
20260906074201 77 239 0.0 1.0 0.00 0.00 0.00 97 1012.2
20260906073656 77 239 1.0 1.0 0.00 0.00 0.00 97 1012.5
20260906073151 77 238 0.0 0.0 0.00 0.00 0.00 98 1012.4
20260906072647 77 239 0.0 1.0 0.00 0.00 0.00 98 1012.5
20260906072142 77 225 1.0 1.0 0.00 0.00 0.00 98 1012.6
20260906071638 77 198 1.0 1.0 0.00 0.00 0.00 98 1012.5
20260906071138 77 249 0.0 0.0 0.00 0.00 0.00 98 1012.4
20260906070635 77 249 0.0 0.0 0.00 0.00 0.00 98 1012.2
20260906070130 77 249 0.0 0.0 0.00 0.00 0.00 98 1012.2
20260906065630 77 249 0.0 0.0 0.00 0.00 0.00 98 1012.5
20260906065125 77 249 0.0 0.0 0.00 0.00 0.00 98 1012.3
20260906064620 77 249 0.0 1.0 0.00 0.00 0.00 98 1012.4
20260906064115 77 249 1.0 1.0 0.00 0.00 0.00 98 1012.3
20260906063610 77 249 0.0 0.0 0.00 0.00 0.00 98 1012.4
20260906063106 77 249 1.0 1.0 0.00 0.00 0.00 98 1012.4
20260906062557 77 249 1.0 1.0 0.00 0.00 0.00 98 1012.4
20260906062055 77 249 0.0 0.0 0.00 0.00 0.00 98 1012.6
20260906061552 77 249 0.0 0.0 0.00 0.00 0.00 98 1012.6
20260906061051 77 249 0.0 0.0 0.00 0.00 0.00 98 1012.6
20260906060548 77 249 0.0 1.0 0.00 0.00 0.00 98 1012.9
20260906060044 77 249 0.0 0.0 0.00 0.00 0.00 98 1012.5
20260906055540 77 249 0.0 1.0 0.00 0.00 0.00 98 1012.7
20260906055035 77 249 1.0 1.0 0.00 0.00 0.00 98 1012.8
20260906054530 76 249 0.0 1.0 0.00 0.00 0.00 98 1012.8
20260906054025 77 249 1.0 1.0 0.00 0.00 0.00 98 1012.7
20260906053521 77 249 0.0 1.0 0.00 0.00 0.00 98 1012.7
20260906053017 76 249 0.0 1.0 0.00 0.00 0.00 98 1012.7
20260906052512 76 249 1.0 1.0 0.00 0.00 0.00 98 1012.8
20260906052010 76 249 1.0 1.0 0.00 0.00 0.00 98 1012.8
20260906051505 76 249 0.0 0.0 0.00 0.00 0.00 98 1012.8
20260906051000 76 249 0.0 0.0 0.00 0.00 0.00 98 1012.8
20260906050500 76 249 0.0 0.0 0.00 0.00 0.00 98 1013.0
20260906045954 76 249 0.0 0.0 0.00 0.07 0.07 98 1013.1
20260906045453 76 249 0.0 0.0 0.00 0.07 0.07 98 1013.0
20260906044949 76 249 0.0 0.0 0.00 0.07 0.07 98 1013.3
20260906044444 76 249 0.0 0.0 0.00 0.07 0.07 98 1013.3
20260906043939 76 249 0.0 0.0 0.00 0.07 0.07 98 1013.0
20260906043435 76 249 0.0 0.0 0.00 0.07 0.07 98 1013.1
20260906042931 76 249 0.0 0.0 0.00 0.07 0.07 98 1013.2
20260906042430 76 249 0.0 0.0 0.00 0.07 0.07 98 1013.2
20260906041925 76 249 0.0 0.0 0.00 0.07 0.07 98 1013.1
20260906041420 76 250 0.0 0.0 0.00 0.07 0.07 98 1013.3
20260906040920 76 249 0.0 0.0 0.00 0.07 0.07 98 1013.3
20260906040416 77 249 0.0 0.0 0.00 0.07 0.07 98 1013.0
20260906035911 77 249 0.0 1.0 0.00 0.07 0.07 98 1013.2
20260906035406 77 249 0.0 0.0 0.00 0.07 0.07 98 1013.0
20260906034902 77 249 0.0 0.0 0.00 0.07 0.07 98 1013.0
20260906034356 77 249 0.0 0.0 0.00 0.07 0.07 97 1013.3
20260906033852 77 249 0.0 0.0 0.00 0.07 0.07 97 1012.9
20260906033351 77 249 0.0 0.0 0.00 0.07 0.07 97 1013.0
20260906032848 77 249 0.0 1.0 0.00 0.07 0.07 97 1012.7
20260906032343 77 250 0.0 0.0 0.00 0.07 0.07 97 1012.9
20260906031838 77 250 0.0 0.0 0.00 0.07 0.07 97 1012.9
20260906031334 77 250 0.0 0.0 0.00 0.07 0.07 97 1012.7
20260906030833 77 249 0.0 0.0 0.00 0.07 0.07 97 1012.8
20260906030329 77 250 0.0 0.0 0.00 0.07 0.07 97 1012.7
20260906025829 77 249 0.0 0.0 0.00 0.07 0.07 97 1012.6
20260906025322 78 250 0.0 0.0 0.00 0.07 0.07 97 1012.5
20260906024821 78 250 0.0 1.0 0.00 0.07 0.07 96 1012.4
20260906024315 78 250 0.0 0.0 0.00 0.07 0.07 96 1012.3
20260906023811 78 250 0.0 0.0 0.00 0.07 0.07 96 1012.4
20260906023306 78 250 1.0 1.0 0.00 0.07 0.07 96 1012.3
20260906022802 78 249 1.0 1.0 0.00 0.07 0.07 96 1012.3
20260906022257 78 249 1.0 1.0 0.00 0.07 0.07 96 1012.4
20260906021753 78 258 1.0 2.0 0.00 0.07 0.07 95 1012.4
20260906021252 78 249 0.0 1.0 0.00 0.07 0.07 95 1012.4
20260906020747 78 249 0.0 0.0 0.00 0.07 0.07 95 1012.4
20260906020247 78 249 0.0 0.0 0.00 0.07 0.07 94 1012.4
20260906015741 78 249 0.0 0.0 0.00 0.07 0.07 94 1012.2
20260906015239 78 250 0.0 1.0 0.00 0.07 0.07 94 1012.2
20260906014734 79 251 1.0 1.0 0.00 0.07 0.07 94 1012.4
20260906014225 79 239 0.0 0.0 0.00 0.07 0.07 93 1012.2
20260906013721 79 239 0.0 1.0 0.00 0.07 0.07 93 1012.2
20260906013221 79 239 1.0 1.0 0.00 0.07 0.07 93 1012.3
20260906012715 79 239 0.0 1.0 0.00 0.07 0.07 93 1012.3
20260906012210 79 239 0.0 1.0 0.00 0.07 0.07 94 1012.2
20260906011706 79 239 1.0 1.0 0.00 0.07 0.07 94 1012.3
20260906011205 80 239 0.0 0.0 0.00 0.07 0.07 94 1012.2
20260906010655 80 239 0.0 1.0 0.00 0.07 0.07 95 1012.1
20260906010152 80 239 1.0 1.0 0.00 0.07 0.07 95 1012.0
20260906005650 80 239 0.0 0.0 0.00 0.07 0.07 96 1012.0
20260906005150 80 238 0.0 0.0 0.00 0.07 0.07 96 1012.0
20260906004649 80 238 0.0 0.0 0.00 0.07 0.07 96 1012.1
20260906004144 81 238 0.0 0.0 0.00 0.07 0.07 96 1011.8
20260906003639 81 238 0.0 1.0 0.00 0.07 0.07 96 1011.7
20260906003135 81 238 0.0 0.0 0.00 0.07 0.07 95 1011.8
20260906002631 81 238 0.0 1.0 0.00 0.07 0.07 95 1012.1
20260906002125 82 238 0.0 0.0 0.00 0.07 0.07 95 1011.9
20260906001621 82 238 0.0 0.0 0.00 0.07 0.07 95 1012.1
20260906001120 82 238 0.0 1.0 0.00 0.07 0.07 94 1011.9
20260906000616 82 238 0.0 0.0 0.00 0.07 0.07 94 1012.1
20260906000111 82 238 0.0 0.0 0.00 0.07 0.07 93 1012.1
20260905235610 83 238 0.0 1.0 0.00 0.07 0.07 93 1012.0
20260905235106 83 239 0.0 1.0 0.00 0.07 0.07 93 1011.7
20260905234601 83 227 0.0 0.0 0.00 0.07 0.07 92 1012.0
20260905234056 83 227 0.0 0.0 0.00 0.07 0.07 92 1011.9
20260905233555 84 227 1.0 1.0 0.00 0.07 0.07 90 1012.1
20260905233050 84 227 1.0 2.0 0.00 0.07 0.07 90 1012.1
20260905232545 85 228 1.0 1.0 0.00 0.07 0.07 88 1012.1
20260905232041 86 222 1.0 1.0 0.00 0.07 0.07 87 1012.0
20260905231537 86 222 1.0 1.0 0.00 0.07 0.07 87 1012.1
20260905231033 86 222 1.0 2.0 0.00 0.07 0.07 86 1012.0
20260905230532 87 223 1.0 1.0 0.00 0.07 0.07 85 1012.0
20260905230031 87 222 1.0 1.0 0.00 0.07 0.07 84 1012.1
20260905225525 88 222 1.0 1.0 0.00 0.07 0.07 83 1011.9
20260905225021 88 221 1.0 1.0 0.00 0.07 0.07 83 1012.0
20260905224515 89 221 1.0 2.0 0.00 0.07 0.07 82 1011.9
20260905224015 89 221 1.0 1.0 0.00 0.07 0.07 83 1012.1
20260905223512 89 225 1.0 2.0 0.00 0.07 0.07 81 1012.0
20260905223007 90 228 1.0 2.0 0.00 0.07 0.07 81 1011.8
20260905222502 91 222 1.0 1.0 0.00 0.07 0.07 80 1012.1
20260905221957 91 222 1.0 1.0 0.00 0.07 0.07 79 1011.9
20260905221453 91 220 1.0 1.0 0.00 0.07 0.07 79 1012.0
20260905220944 92 227 1.0 1.0 0.00 0.07 0.07 77 1012.1
20260905220440 94 223 1.0 1.0 0.00 0.07 0.07 75 1012.0
20260905215938 96 224 1.0 1.0 0.00 0.07 0.07 71 1012.1
20260905215434 95 220 0.0 0.0 0.00 0.07 0.07 70 1012.2
20260905214931 94 220 0.0 1.0 0.00 0.07 0.07 73 1012.2
20260905214426 95 219 1.0 1.0 0.00 0.07 0.07 71 1012.2
20260905213926 94 219 1.0 1.0 0.00 0.07 0.07 74 1012.3
20260905213423 94 217 1.0 1.0 0.00 0.07 0.07 72 1012.5
20260905212918 95 215 1.0 2.0 0.00 0.07 0.07 73 1012.5
20260905212412 96 215 1.0 1.0 0.00 0.07 0.07 69 1012.4
20260905211911 95 215 0.0 1.0 0.00 0.07 0.07 64 1012.6
20260905211407 95 227 1.0 2.0 0.00 0.07 0.07 68 1012.4
20260905210903 97 213 1.0 2.0 0.00 0.07 0.07 67 1012.5
20260905210403 98 219 0.0 1.0 0.00 0.07 0.07 62 1012.4
20260905205903 97 218 1.0 1.0 0.00 0.07 0.07 49 1012.7
20260905205357 98 221 1.0 1.0 0.00 0.07 0.07 47 1012.5
20260905204856 98 218 1.0 1.0 0.00 0.07 0.07 54 1012.5
20260905204353 98 210 0.0 1.0 0.00 0.07 0.07 48 1012.7
20260905203851 97 215 1.0 2.0 0.00 0.07 0.07 50 1012.7
20260905203346 97 240 1.0 2.0 0.00 0.07 0.07 65 1012.7
20260905202837 96 228 1.0 1.0 0.00 0.07 0.07 58 1012.8
20260905202337 96 228 1.0 1.0 0.00 0.07 0.07 66 1013.0
20260905201833 96 219 0.0 1.0 0.00 0.07 0.07 60 1013.1
20260905201328 96 220 1.0 1.0 0.00 0.07 0.07 64 1012.9
20260905200822 95 220 0.0 1.0 0.00 0.07 0.07 59 1012.9
20260905200319 95 220 1.0 1.0 0.00 0.07 0.07 66 1013.2
20260905195816 94 220 1.0 1.0 0.00 0.07 0.07 57 1013.3
20260905195312 93 225 1.0 2.0 0.00 0.07 0.07 72 1013.6
20260905194807 95 216 1.0 2.0 0.00 0.07 0.07 73 1013.6
20260905194301 95 231 1.0 1.0 0.00 0.07 0.07 70 1013.4
20260905193800 93 231 1.0 1.0 0.00 0.07 0.07 68 1013.8
20260905193256 90 230 0.0 1.0 0.00 0.07 0.07 70 1014.0
20260905192750 89 243 1.0 2.0 0.00 0.07 0.07 76 1014.0
20260905192247 88 214 1.0 2.0 0.00 0.07 0.07 77 1013.9
20260905191747 87 219 1.0 2.0 0.00 0.07 0.07 80 1014.2
20260905191245 85 237 1.0 1.0 0.00 0.07 0.07 82 1014.3
20260905190743 82 242 2.0 3.0 0.00 0.07 0.07 88 1014.5
20260905190243 82 244 0.0 1.0 0.00 0.07 0.07 87 1014.4
20260905185741 82 216 0.0 0.0 0.00 0.07 0.07 84 1014.6
20260905185236 82 238 2.0 5.0 0.07 0.07 0.07 83 1014.7
20260905184731 84 223 2.0 3.0 0.24 0.07 0.07 85 1015.0
20260905184230 88 228 0.0 1.0 0.35 0.06 0.06 76 1014.9
20260905183729 94 278 1.0 2.0 0.19 0.03 0.03 69 1014.7
20260905183225 99 252 1.0 2.0 0.00 0.00 0.00 53 1014.5
20260905182725 99 211 1.0 3.0 0.00 0.00 0.00 49 1014.4
20260905182224 99 219 0.0 1.0 0.00 0.00 0.00 47 1014.7
20260905181714 99 222 0.0 1.0 0.00 0.00 0.00 49 1014.6
20260905181213 99 185 1.0 2.0 0.00 0.00 0.00 48 1014.6
20260905180707 98 206 0.0 0.0 0.00 0.00 0.00 49 1014.7
20260905180203 98 206 1.0 2.0 0.00 0.00 0.00 54 1014.7
20260905175701 98 202 0.0 1.0 0.00 0.00 0.00 52 1014.8
20260905175157 98 199 1.0 1.0 0.00 0.00 0.00 51 1014.9
20260905174653 97 210 0.0 1.0 0.00 0.00 0.00 49 1014.7
20260905174148 96 213 1.0 2.0 0.00 0.00 0.00 50 1014.7
20260905173644 96 246 1.0 2.0 0.00 0.00 0.00 51 1014.9
20260905173140 96 245 2.0 3.0 0.00 0.00 0.00 51 1015.0
20260905172639 96 216 2.0 2.0 0.00 0.00 0.00 51 1015.0
20260905172134 96 228 1.0 5.0 0.00 0.00 0.00 52 1014.9
20260905171630 96 212 0.0 1.0 0.00 0.00 0.00 52 1015.1
20260905171126 96 223 2.0 3.0 0.00 0.00 0.00 53 1015.1
20260905170622 96 222 1.0 3.0 0.00 0.00 0.00 53 1015.3
20260905170117 96 202 1.0 1.0 0.00 0.00 0.00 56 1015.4
20260905165611 96 200 0.0 1.0 0.00 0.00 0.00 56 1015.4
20260905165106 96 202 0.0 1.0 0.00 0.00 0.00 53 1015.2
20260905164555 95 224 0.0 1.0 0.00 0.00 0.00 53 1015.4
20260905164049 95 214 2.0 2.0 0.00 0.00 0.00 59 1015.5
20260905163546 94 230 1.0 1.0 0.00 0.00 0.00 55 1015.6
20260905163042 93 226 1.0 2.0 0.00 0.00 0.00 59 1015.6
20260905162539 94 253 1.0 2.0 0.00 0.00 0.00 61 1015.7
20260905162038 94 195 3.0 3.0 0.00 0.00 0.00 58 1015.4
20260905161537 94 202 0.0 0.0 0.00 0.00 0.00 62 1015.5
20260905161035 94 202 1.0 1.0 0.00 0.00 0.00 66 1015.7
20260905160534 93 190 0.0 1.0 0.00 0.00 0.00 62 1015.5
20260905160029 92 206 1.0 2.0 0.00 0.00 0.00 61 1015.9
20260905155529 92 209 1.0 3.0 0.00 0.00 0.00 62 1015.6
20260905155027 91 215 1.0 2.0 0.00 0.00 0.00 67 1015.8
20260905154522 92 216 3.0 3.0 0.00 0.00 0.00 67 1015.7
20260905154018 91 258 0.0 0.0 0.00 0.00 0.00 68 1015.7
20260905153514 91 268 1.0 1.0 0.00 0.00 0.00 67 1015.8
20260905153014 90 212 2.0 2.0 0.00 0.00 0.00 70 1015.6
20260905152513 90 216 1.0 2.0 0.00 0.00 0.00 71 1015.8
20260905152008 90 220 0.0 0.0 0.00 0.00 0.00 68 1015.8
20260905151504 89 231 3.0 3.0 0.00 0.00 0.00 69 1016.0
20260905150959 89 270 2.0 2.0 0.00 0.00 0.00 71 1016.1
20260905150454 89 227 0.0 0.0 0.00 0.00 0.00 76 1015.9
20260905145950 88 227 0.0 1.0 0.00 0.00 0.00 78 1015.9
20260905145445 88 227 0.0 0.0 0.00 0.00 0.00 78 1015.9
20260905144944 88 227 0.0 0.0 0.00 0.00 0.00 76 1016.0
20260905144440 88 227 0.0 0.0 0.00 0.00 0.00 76 1016.0
20260905143939 87 228 0.0 0.0 0.00 0.00 0.00 75 1015.9
20260905143433 87 209 0.0 1.0 0.00 0.00 0.00 74 1015.7
20260905142932 86 209 0.0 0.0 0.00 0.00 0.00 76 1015.9
20260905142432 87 208 1.0 1.0 0.00 0.00 0.00 75 1015.8
20260905141928 85 253 0.0 0.0 0.00 0.00 0.00 80 1015.9
20260905141422 84 253 0.0 0.0 0.00 0.00 0.00 83 1015.8
20260905140919 84 253 0.0 0.0 0.00 0.00 0.00 85 1015.7
20260905140414 83 254 0.0 0.0 0.00 0.00 0.00 87 1015.7
20260905135912 82 253 0.0 0.0 0.00 0.00 0.00 88 1015.9
20260905135408 81 253 0.0 0.0 0.00 0.00 0.00 93 1015.9
20260905134903 80 253 0.0 0.0 0.00 0.00 0.00 97 1015.9
20260905134403 79 253 0.0 0.0 0.00 0.00 0.00 99 1015.8
20260905133857 79 253 0.0 0.0 0.00 0.00 0.00 99 1015.8
20260905133352 78 253 0.0 0.0 0.00 0.00 0.00 99 1015.8
20260905132851 78 253 0.0 0.0 0.00 0.00 0.00 99 1015.8
20260905132347 77 253 0.0 0.0 0.00 0.00 0.00 99 1015.8
20260905131846 77 253 0.0 0.0 0.00 0.00 0.00 99 1015.9
20260905131343 76 254 0.0 0.0 0.00 0.00 0.00 99 1015.7
20260905130837 76 254 0.0 0.0 0.00 0.00 0.00 99 1015.7
20260905130336 75 254 0.0 0.0 0.00 0.00 0.00 99 1015.6
20260905125831 75 254 0.0 0.0 0.00 0.00 0.00 99 1015.7
20260905125326 75 254 0.0 0.0 0.00 0.00 0.00 99 1015.7
20260905124823 74 254 0.0 0.0 0.00 0.00 0.00 99 1015.4
20260905124319 74 254 0.0 0.0 0.00 0.00 0.00 99 1015.6
20260905123819 74 254 0.0 0.0 0.00 0.00 0.00 99 1015.4
20260905123316 73 254 0.0 0.0 0.00 0.00 0.00 99 1015.6
20260905122815 73 254 0.0 0.0 0.00 0.00 0.00 99 1015.4
20260905122314 73 254 0.0 0.0 0.00 0.00 0.00 99 1015.4
20260905121810 73 254 0.0 0.0 0.00 0.00 0.00 99 1015.3
20260905121307 73 254 0.0 0.0 0.00 0.00 0.00 99 1015.4
20260905120805 73 254 0.0 0.0 0.00 0.00 0.00 99 1015.3
20260905120300 73 254 0.0 0.0 0.00 0.00 0.00 99 1015.1
20260905115754 73 254 0.0 0.0 0.00 0.00 0.00 99 1015.4
20260905115249 72 254 0.0 0.0 0.00 0.00 0.00 99 1015.5
20260905114748 72 254 0.0 0.0 0.00 0.00 0.00 99 1015.1
20260905114247 72 254 0.0 0.0 0.00 0.00 0.00 99 1015.1
20260905113746 72 254 0.0 0.0 0.00 0.00 0.00 99 1015.0
20260905113243 72 254 0.0 0.0 0.00 0.00 0.00 99 1015.1
20260905112737 73 254 0.0 0.0 0.00 0.00 0.00 99 1015.1
20260905112232 73 254 0.0 0.0 0.00 0.00 0.00 99 1015.0